Other Public Products
Issued by NWS Charleston, SC

Current Version | Previous Version | Graphics & Text | Print | Product List | Glossary On
Versions: 1 2 3 4 5 6 7 8 9 10 11 12 13 14 15 16 17 18 19 20 21 22 23 24 25 26 27 28 29 30 31 32 33 34 35 36 37 38 39 40 41 42 43 44 45 46 47 48 49 50
809 FPUS82 KCHS 241128 OPUCHS TEST...KCHS/KSAV Gateway Observations...TEST National Weather Service Charleston SC 700 AM EDT SUN SEP 24 2017 NOTE: "fair" indicates few or no clouds below 12,000 feet with no significant weather and/or obstructions to visibility. SCZ050-WAZ558-NCZ071-TXZ119-213-PAZ071-DCZ001-FLZ074-172-MI076- NYZ176-178-MAZ016-IL014-TNZ027-NJZ106-GAZ044-MD014-241200- ...Gateway Observations for Charleston International... CITY SKY/WX TMP DP RH WIND PRES REMARKS Chas Airport PTCLDY 69 68 96 NE8 30.00R Seattle CLEAR 52 47 83 CALM 30.14S Charlotte MOCLDY 65 63 93 N7 30.10R Dallas DFW MOCLDY 75 69 81 SE6 29.88S Dallas Love PTCLDY 76 68 76 S9 29.89S Philladelphia CLEAR 71 60 68 N3 30.08R Wash National PTCLDY 67 61 81 NW6 30.09R Baltimore PTCLDY 63 60 90 CALM 30.08R Miami PTCLDY 80 78 94 NW3 29.84R Detroit PTCLDY 66 62 87 CALM 30.16R Newark CLEAR 68 58 70 N3 30.07R Laguardia CLEAR 71 61 70 CALM 30.06R J F K CLEAR 68 59 73 N5 30.07R Boston Logan PTCLDY 63 61 93 CALM 30.07R Ft. Lauderdale TSTM 81 78 91 NE12 29.84R FOG Chicago O`Hare CLEAR 71 63 75 S3 30.07S Chicago Midway CLEAR 74 65 73 S3 30.08R Houston Bush PTCLDY 72 71 97 N3 29.88S Houston Hobby PTCLDY 76 72 87 CALM 29.86F Nashville PTCLDY 68 67 96 CALM 30.06R FOG Atlanta MOCLDY 69 64 84 NE6 30.07R $$ GAZ044-118-TXZ119-213-NCZ071-DCZ001-MDZ014-506-PAZ021-071-NJZ106- NYZ176-178-MAZ106-OHZ011-021-055-MIZ076-KYZ091-ILZ014-INZ047- MNZ060-ONZ431-241200- ...Gateway Observations for Savannah International... CITY SKY/WX TMP DP RH WIND PRES REMARKS Savannah Arpt PTCLDY 69 69 100 N8 29.99R Atlanta MOCLDY 69 64 84 NE6 30.07R Charlotte MOCLDY 65 63 93 N7 30.10R Dallas DFW MOCLDY 75 69 81 SE6 29.88S Houston Bush PTCLDY 72 71 97 N3 29.88S Wash National PTCLDY 67 61 81 NW6 30.09R Wash Dulles PTCLDY 62 60 93 NW5 30.11R Baltimore PTCLDY 63 60 90 CALM 30.08R Philadelphia CLEAR 71 60 68 N3 30.08R Newark CLEAR 68 58 70 N3 30.07R Laguardia CLEAR 71 61 70 CALM 30.06R J F K CLEAR 68 59 73 N5 30.07R Boston PTCLDY 63 61 93 CALM 30.07R Pittsburg CLEAR 62 58 86 CALM 30.18R Akron CLEAR 67 59 75 E5 30.18R Cleveland CLEAR 65 60 84 CALM 30.17R Cincinnati CLEAR 67 62 84 E7 30.11R Columbus CLEAR 61 59 92 NE8 30.14R Detroit PTCLDY 66 62 87 CALM 30.16R Chicago O`Hare CLEAR 71 63 75 S3 30.07S Minneapolis CLEAR 73 64 73 S3 29.94S Indianapolis CLEAR 67 62 84 CALM 30.10R Toronto Canada PTCLDY 72 64 78 NW6 30.14R $$

USA.gov is the U.S. government's official web portal to all federal, state and local government web resources and services.